Weather History for Madisonville, KY

Change the Weather History Date:

Tuesday, February 19, 2013

  Actual Average (KOWB) Record (KOWB)
Temperature  
Mean Temperature 40 °F -  
Max Temperature 50 °F 49 °F 73 °F (1939)
Min Temperature 28 °F 29 °F -1 °F (1978)
Degree Days  
Heating Degree Days 26    
Moisture  
Dew Point 28 °F    
Average Humidity 68    
Maximum Humidity 95    
Minimum Humidity 42    
Precipitation  
Precipitation 0.07 in - - ()
Sea Level Pressure  
Sea Level Pressure 30.07 in    
Wind  
Wind Speed 14 mph (NW)    
Max Wind Speed 22 mph    
Max Gust Speed 36 mph    
Visibility 10 miles    
Events Rain    
Averages and records for this station are not official NWS values.
T = Trace of Precipitation, MM = Missing Value Source: NWS Daily Summary

Daily Weather History Graph

Daily Weather History Graph

Search for Another Location

Airport:

Trip Planner

Search our weather history database for the weather conditions in past years. The results will help you decide how hot, cold, wet, or windy it might be!

Date:

Astronomy

Feb. 19, 2013 Rise Set
Actual Time 6:33 AM CST 5:33 PM CST
Civil Twilight 6:07 AM CST 6:00 PM CST
Nautical Twilight 5:36 AM CST 6:30 PM CST
Astronomical Twilight 5:06 AM CST 7:00 PM CST
Moon 12:08 PM CST 2:01 AM CST
Length of Visible Light 11h 53m
Length of Day
11h 00m
Waxing Gibbous, 67% of the Moon is Illuminated
Feb 19
Waxing Gibbous
Feb 25
Full
Mar 4
Last Quarter
Mar 11
New
Mar 19
First Quarter

Hourly Weather History & Observations

Time (CST) Temp. Windchill Dew Point Humidity Pressure Visibility Wind Dir Wind Speed Gust Speed Precip Events Conditions
12:15 AM 50.0 °F - 48.6 °F 95% 29.79 in 7.0 mi SW 16.1 mph 23.0 mph N/A   Overcast
12:35 AM 46.4 °F 41.1 °F 44.6 °F 93% 29.83 in 5.0 mi NW 11.5 mph 25.3 mph 0.04 in Rain Rain
12:55 AM 43.9 °F 35.9 °F 41.0 °F 90% 29.85 in 7.0 mi NW 18.4 mph 35.7 mph 0.06 in Rain Light Rain
1:15 AM 42.4 °F 35.0 °F 40.3 °F 92% 29.86 in 10.0 mi NW 15.0 mph 25.3 mph 0.01 in Rain Light Rain
1:35 AM 42.4 °F 35.0 °F 39.6 °F 90% 29.87 in 10.0 mi NW 15.0 mph 20.7 mph 0.01 in   Overcast
1:55 AM 41.9 °F 35.4 °F 39.7 °F 92% 29.88 in 7.0 mi WNW 11.5 mph - 0.01 in Rain Light Rain
2:15 AM 42.1 °F 34.5 °F 39.7 °F 91% 29.89 in 10.0 mi WNW 15.0 mph 19.6 mph N/A   Overcast
2:35 AM 42.4 °F 34.7 °F 39.0 °F 88% 29.90 in 10.0 mi NW 16.1 mph 25.3 mph N/A   Overcast
2:55 AM 42.3 °F 35.9 °F 39.2 °F 89% 29.91 in 10.0 mi WNW 11.5 mph 18.4 mph N/A   Overcast
3:15 AM 42.1 °F 35.7 °F 38.8 °F 88% 29.91 in 10.0 mi NW 11.5 mph 21.9 mph N/A   Overcast
3:35 AM 41.0 °F 34.7 °F 37.8 °F 88% 29.92 in 10.0 mi NW 10.4 mph - N/A   Overcast
3:55 AM 40.3 °F 33.9 °F 37.2 °F 89% 29.93 in 10.0 mi NW 10.4 mph - N/A   Overcast
4:15 AM 39.7 °F 30.3 °F 35.8 °F 86% 29.93 in 10.0 mi NW 19.6 mph 24.2 mph N/A   Overcast
4:35 AM 37.9 °F 28.9 °F 31.8 °F 79% 29.96 in 10.0 mi NW 16.1 mph 27.6 mph N/A   Overcast
4:55 AM 37.6 °F 30.0 °F 31.3 °F 78% 29.96 in 10.0 mi NW 11.5 mph 19.6 mph N/A   Overcast
5:15 AM 37.4 °F 29.8 °F 31.3 °F 79% 29.98 in 10.0 mi NW 11.5 mph - N/A   Overcast
5:35 AM 36.7 °F 32.0 °F 31.6 °F 82% 29.98 in 10.0 mi NW 5.8 mph - N/A   Overcast
5:55 AM 36.5 °F 29.7 °F 31.1 °F 81% 29.99 in 10.0 mi WNW 9.2 mph - N/A   Overcast
6:15 AM 36.5 °F 28.2 °F 30.6 °F 79% 30.00 in 10.0 mi West 12.7 mph - N/A   Overcast
6:35 AM 35.1 °F 25.5 °F 28.6 °F 77% 30.01 in 10.0 mi WNW 15.0 mph 20.7 mph N/A   Mostly Cloudy
6:55 AM 34.2 °F 26.2 °F 28.0 °F 78% 30.03 in 10.0 mi West 10.4 mph - N/A   Scattered Clouds
7:15 AM 34.3 °F 25.5 °F 28.0 °F 78% 30.04 in 10.0 mi West 12.7 mph 23.0 mph N/A   Scattered Clouds
7:35 AM 34.7 °F 26.9 °F 28.2 °F 77% 30.04 in 10.0 mi WNW 10.4 mph 19.6 mph N/A   Clear
7:55 AM 35.1 °F 25.2 °F 28.0 °F 76% 30.05 in 10.0 mi West 16.1 mph 21.9 mph N/A   Clear
8:15 AM 35.2 °F 25.4 °F 28.4 °F 76% 30.06 in 10.0 mi West 16.1 mph - N/A   Scattered Clouds
8:35 AM 35.6 °F 26.2 °F 28.0 °F 74% 30.06 in 10.0 mi West 15.0 mph - N/A   Mostly Cloudy
8:55 AM 36.1 °F 25.5 °F 26.8 °F 69% 30.07 in 10.0 mi WNW 19.6 mph 24.2 mph N/A   Scattered Clouds
9:15 AM 36.7 °F 26.6 °F 27.3 °F 69% 30.07 in 10.0 mi West 18.4 mph 23.0 mph N/A   Clear
9:35 AM 37.6 °F 27.7 °F 27.1 °F 66% 30.08 in 10.0 mi WNW 18.4 mph 23.0 mph N/A   Clear
9:55 AM 37.6 °F 28.4 °F 25.7 °F 62% 30.08 in 10.0 mi WNW 16.1 mph 26.5 mph N/A   Clear
10:15 AM 38.8 °F 31.6 °F 27.7 °F 64% 30.09 in 10.0 mi WNW 11.5 mph 20.7 mph N/A   Clear
10:35 AM 38.8 °F 30.8 °F 26.8 °F 62% 30.09 in 10.0 mi WNW 13.8 mph 28.8 mph N/A   Scattered Clouds
10:55 AM 39.4 °F 30.4 °F 26.6 °F 60% 30.09 in 10.0 mi West 17.3 mph 25.3 mph N/A   Clear
11:15 AM 39.9 °F 31.1 °F 26.1 °F 58% 30.10 in 10.0 mi West 17.3 mph 25.3 mph N/A   Scattered Clouds
11:35 AM 40.5 °F 31.5 °F 27.7 °F 60% 30.10 in 10.0 mi WNW 18.4 mph 24.2 mph N/A   Scattered Clouds
11:55 AM 41.4 °F 33.0 °F 27.7 °F 58% 30.10 in 10.0 mi West 17.3 mph 21.9 mph N/A   Clear
12:15 PM 41.7 °F 32.9 °F 27.0 °F 56% 30.09 in 10.0 mi West 19.6 mph 25.3 mph N/A   Clear
12:35 PM 41.9 °F 34.0 °F 25.3 °F 52% 30.09 in 10.0 mi WNW 16.1 mph 25.3 mph N/A   Clear
12:55 PM 43.3 °F 35.0 °F 27.1 °F 53% 30.09 in 10.0 mi West 19.6 mph 23.0 mph N/A   Clear
1:15 PM 43.2 °F 35.3 °F 25.5 °F 50% 30.09 in 10.0 mi West 17.3 mph 24.2 mph N/A   Clear
1:35 PM 43.3 °F 36.1 °F 24.3 °F 47% 30.09 in 10.0 mi NW 15.0 mph 25.3 mph N/A   Clear
1:55 PM 43.9 °F 35.2 °F 23.4 °F 44% 30.09 in 10.0 mi WNW 21.9 mph 27.6 mph N/A   Clear
2:15 PM 43.3 °F 35.0 °F 21.9 °F 43% 30.10 in 10.0 mi NW 19.6 mph 26.5 mph N/A   Clear
2:35 PM 43.7 °F 35.4 °F 22.6 °F 43% 30.10 in 10.0 mi NW 19.6 mph 28.8 mph N/A   Clear
2:55 PM 43.9 °F 36.5 °F 23.4 °F 44% 30.11 in 10.0 mi WNW 16.1 mph 24.2 mph N/A   Clear
3:15 PM 44.1 °F 37.1 °F 24.8 °F 47% 30.12 in 10.0 mi West 15.0 mph 20.7 mph N/A   Clear
3:35 PM 43.7 °F 37.3 °F 22.3 °F 43% 30.13 in 10.0 mi WNW 12.7 mph 21.9 mph N/A   Clear
3:55 PM 43.7 °F 37.7 °F 22.5 °F 43% 30.13 in 10.0 mi WNW 11.5 mph 21.9 mph N/A   Clear
4:15 PM 43.3 °F 35.8 °F 21.4 °F 42% 30.13 in 10.0 mi West 16.1 mph 21.9 mph N/A   Scattered Clouds
4:35 PM 43.0 °F 36.0 °F 21.4 °F 42% 30.14 in 10.0 mi NW 13.8 mph 23.0 mph N/A   Clear
4:55 PM 41.7 °F 35.6 °F 21.4 °F 44% 30.14 in 10.0 mi NW 10.4 mph - N/A   Clear
5:15 PM 40.8 °F 34.5 °F 21.2 °F 46% 30.15 in 10.0 mi NW 10.4 mph - N/A   Clear
6:35 PM 34.9 °F 29.0 °F 23.9 °F 64% 30.18 in 10.0 mi North 6.9 mph - N/A   Clear
6:55 PM 34.7 °F 29.6 °F 23.7 °F 64% 30.18 in 10.0 mi NNW 5.8 mph - N/A   Clear
7:15 PM 34.2 °F 31.2 °F 23.4 °F 65% 30.18 in 10.0 mi NNW 3.5 mph - N/A   Clear
7:35 PM 34.9 °F 30.8 °F 22.3 °F 60% 30.19 in 10.0 mi NW 4.6 mph - N/A   Clear
7:55 PM 32.9 °F 25.9 °F 22.5 °F 65% 30.19 in 10.0 mi NNW 8.1 mph - N/A   Clear
8:15 PM 34.2 °F 26.8 °F 21.9 °F 61% 30.20 in 10.0 mi NNW 9.2 mph - N/A   Clear
8:35 PM 33.8 °F 24.3 °F 22.8 °F 64% 30.21 in 10.0 mi North 13.8 mph - N/A   Clear
8:55 PM 32.4 °F 24.0 °F 23.7 °F 70% 30.22 in 10.0 mi North 10.4 mph - N/A   Clear
9:15 PM 32.0 °F 22.5 °F 23.2 °F 70% 30.23 in 10.0 mi North 12.7 mph - N/A   Clear
9:35 PM 30.7 °F 24.1 °F 23.5 °F 75% 30.24 in 10.0 mi North 6.9 mph - N/A   Clear
9:55 PM 31.1 °F 23.7 °F 21.4 °F 67% 30.25 in 10.0 mi NNW 8.1 mph - N/A   Clear
10:15 PM 30.2 °F 22.6 °F 21.0 °F 69% 30.27 in 10.0 mi NNW 8.1 mph - N/A   Clear
10:35 PM 30.0 °F 24.1 °F 21.0 °F 69% 30.27 in 10.0 mi NW 5.8 mph - N/A   Clear
10:55 PM 29.3 °F 23.2 °F 21.2 °F 72% 30.26 in 10.0 mi NW 5.8 mph - N/A   Clear
11:15 PM 29.1 °F 21.3 °F 20.7 °F 71% 30.26 in 10.0 mi NNW 8.1 mph - N/A   Clear
11:35 PM 28.8 °F 20.9 °F 20.8 °F 72% 30.26 in 10.0 mi North 8.1 mph - N/A   Clear